Wichita Jabara, KS

6:02 AM CDT on July 28, 2017 (GMT -0500)
Col Jabara

Weather History for KAAO - January, 2013

Change the Weather History Date:

Tuesday, January 1, 2013

  Actual Average (KIAB) Record (KIAB)
Temperature  
Mean Temperature 22 °F -  
Max Temperature 27 °F 44 °F 68 °F (2005)
Min Temperature 16 °F 23 °F 10 °F (2011)
Degree Days  
Heating Degree Days 44    
Moisture  
Dew Point 20 °F    
Average Humidity 96    
Maximum Humidity 100    
Minimum Humidity 88    
Precipitation  
Precipitation 0.00 in - - ()
Sea Level Pressure  
Sea Level Pressure 30.27 in    
Wind  
Wind Speed 9 mph (North)    
Max Wind Speed 14 mph    
Max Gust Speed 20 mph    
Visibility 6 miles    
Events Snow    
Averages and records for this station are not official NWS values.
T = Trace of Precipitation, MM = Missing Value Source: NWS Daily Summary

Daily Weather History Graph

Daily Weather History Graph

Search for Another Location

Airport or City:

Trip Planner

Search our weather history database for the weather conditions in past years. The results will help you decide how hot, cold, wet, or windy it might be!

Date:

Astronomy

Jan. 01, 2013 Rise Set
Actual Time 7:44 AM CST 5:21 PM CST
Civil Twilight 7:15 AM CST 5:50 PM CST
Nautical Twilight 6:42 AM CST 6:23 PM CST
Astronomical Twilight 6:10 AM CST 6:55 PM CST
Moon 9:48 PM CST (1/1) 10:01 AM CST (1/1)
Length of Visible Light 10h 35m
Length of Day
9h 36m
Waning Gibbous, 83% of the Moon is Illuminated
Jan 1
Waning Gibbous
Jan 4
Last Quarter
Jan 11
New
Jan 18
First Quarter
Jan 26
Full

Hourly Weather History & Observations

Time (CST) Temp. Windchill Dew Point Humidity Pressure Visibility Wind Dir Wind Speed Gust Speed Precip Events Conditions
12:47 AM 24.8 °F 14.0 °F 24.8 °F 100% 30.13 in 2.0 mi NNE 11.5 mph - 0.00 in Snow Light Snow
12:54 AM 24.1 °F 13.1 °F 24.1 °F 100% 30.18 in 2.5 mi NNE 11.5 mph - 0.00 in Snow Light Snow
1:04 AM 24.8 °F 14.6 °F 24.8 °F 100% 30.13 in 3.0 mi NNE 10.4 mph - 0.00 in   Overcast
1:54 AM 23.0 °F 12.4 °F 23.0 °F 100% 30.18 in 4.0 mi NNE 10.4 mph - 0.00 in   Overcast
2:54 AM 23.0 °F 11.7 °F 23.0 °F 100% 30.19 in 6.0 mi NNE 11.5 mph 19.6 mph N/A   Overcast
3:54 AM 21.9 °F 11.0 °F 21.9 °F 100% 30.19 in 8.0 mi NNE 10.4 mph - N/A   Overcast
4:54 AM 21.9 °F 11.7 °F 21.9 °F 100% 30.22 in 3.0 mi North 9.2 mph - N/A   Overcast
5:54 AM 21.0 °F 8.1 °F 21.0 °F 100% 30.24 in 8.0 mi North 13.8 mph - N/A   Overcast
6:52 AM 21.2 °F 10.9 °F 19.4 °F 93% 30.21 in 10.0 mi NNE 9.2 mph - N/A   Overcast
6:54 AM 21.0 °F 10.6 °F 19.9 °F 96% 30.27 in 10.0 mi NNE 9.2 mph - N/A   Overcast
7:16 AM 19.4 °F 8.6 °F 19.4 °F 100% 30.22 in 10.0 mi NNE 9.2 mph - N/A   Overcast
7:54 AM 19.9 °F 7.9 °F 19.0 °F 96% 30.29 in 10.0 mi North 11.5 mph - N/A   Overcast
8:54 AM 19.9 °F 9.3 °F 19.0 °F 96% 30.30 in 4.0 mi NNE 9.2 mph - 0.00 in Snow Light Snow
9:10 AM 19.4 °F 8.6 °F 19.4 °F 100% 30.25 in 2.0 mi North 9.2 mph - 0.00 in Snow Light Snow
9:32 AM 19.4 °F 8.6 °F 19.4 °F 100% 30.26 in 3.0 mi North 9.2 mph - 0.01 in Snow Light Snow
9:42 AM 19.4 °F 8.6 °F 19.4 °F 100% 30.27 in 2.5 mi NNE 9.2 mph - 0.01 in Snow Light Snow
10:04 AM 21.2 °F 11.7 °F 19.4 °F 93% 30.27 in 3.0 mi North 8.1 mph - 0.00 in Snow Light Snow
10:14 AM 21.2 °F 10.1 °F 19.4 °F 93% 30.28 in 2.5 mi North 10.4 mph - 0.00 in Snow Light Snow
10:54 AM 21.0 °F 10.6 °F 19.9 °F 96% 30.35 in 2.0 mi North 9.2 mph - 0.00 in Snow Light Snow
11:17 AM 21.2 °F 10.9 °F 21.2 °F 100% 30.28 in 3.0 mi North 9.2 mph - 0.00 in Snow Light Snow
11:40 AM 21.2 °F 12.6 °F 21.2 °F 100% 30.27 in 2.5 mi North 6.9 mph - 0.00 in Snow Light Snow
11:54 AM 21.9 °F 13.4 °F 21.9 °F 100% 30.34 in 5.0 mi North 6.9 mph - 0.00 in Snow Light Snow
12:54 PM 23.0 °F 14.7 °F 21.9 °F 96% 30.32 in 10.0 mi North 6.9 mph - 0.00 in   Overcast
2:54 PM 27.0 °F 19.5 °F 25.0 °F 92% 30.30 in 10.0 mi North 6.9 mph - N/A   Partly Cloudy
3:54 PM 27.0 °F 18.0 °F 24.1 °F 89% 30.30 in 8.0 mi NW 9.2 mph - N/A   Clear
4:54 PM 25.0 °F 15.5 °F 21.9 °F 88% 30.31 in 9.0 mi NW 9.2 mph - N/A   Clear
5:54 PM 21.0 °F 13.4 °F 18.0 °F 88% 30.31 in 10.0 mi WNW 5.8 mph - N/A   Clear
6:54 PM 19.0 °F 10.0 °F 16.0 °F 88% 30.33 in 9.0 mi NW 6.9 mph - N/A   Clear
7:54 PM 18.0 °F 12.7 °F 16.0 °F 92% 30.34 in 9.0 mi NW 3.5 mph - N/A   Clear
8:54 PM 17.1 °F - 16.0 °F 96% 30.32 in 8.0 mi Calm Calm - N/A   Clear
9:54 PM 17.1 °F 11.7 °F 15.1 °F 92% 30.31 in 7.0 mi WNW 3.5 mph - N/A   Clear
10:54 PM 16.0 °F - 14.0 °F 92% 30.33 in 5.0 mi Calm Calm - N/A   Clear
11:54 PM 17.1 °F 6.6 °F 15.1 °F 92% 30.32 in 6.0 mi West 8.1 mph - N/A   Clear